Regional Weather Roundup
Issued by NWS

Home | Current Version | Previous Version | Text Only | Print | Product List | Glossary Off
Versions: 1 2 3 4 5 6 7 8 9 10 11 12 13 14 15 16 17 18 19 20 21 22 23 24 25 26 27 28 29 30 31 32 33 34 35 36 37 38 39 40 41 42 43 44 45 46 47 48 49 50

000
ASUS45 KBOU 041507
RWRCO

WEATHER ROUNDUP FOR COLORADO
NATIONAL WEATHER SERVICE DENVER/BOULDER CO
800 AM MST WED MAR 04 2015

NOTE: "FAIR" INDICATES FEW OR NO CLOUDS BELOW 12000 FEET WITH NO
SIGNIFICANT WEATHER AND/OR OBSTRUCTIONS TO VISIBILITY.

COZ001>005-013-030-031-041600-
...NORTHWEST COLORADO...

CITY           SKY/WX    TMP DP  RH WIND       PRES   REMARKS
CRAIG          CLOUDY     6   3  87 CALM      30.05R
HAYDEN         MOSUNNY    5   1  85 CALM      30.01R
MEEKER         PTSUNNY   10   3  73 CALM      30.03R
MOUNT WERNER   NOT AVBL
STEAMBOAT SPGS CLOUDY     6   2  84 CALM      30.00R
WALDEN         CLOUDY     3  -4  72 CALM      29.92R
$$

COZ006>008-011-041600-
...WEST CENTRAL VALLEYS...

CITY           SKY/WX    TMP DP  RH WIND       PRES   REMARKS
GRAND JUNCTION SUNNY     26  20  77 W3        30.05R
MONTROSE       CLOUDY    26  18  71 N3        30.03R
EAGLE          MOSUNNY   18  14  86 S3        30.04R
RIFLE          MOSUNNY   23   9  55 SW5       30.05R WCI  17
DELTA          MOSUNNY   30  22  73 NE6       30.03R WCI  24
NUCLA          MOSUNNY   27  19  74 NW5       30.04R WCI  21
$$

COZ017>023-064>068-041600-
...SOUTHWEST COLORADO...

CITY           SKY/WX    TMP DP  RH WIND       PRES   REMARKS
DURANGO        MOSUNNY   18  14  84 CALM      29.92R
CORTEZ         CLOUDY    27  16  63 CALM      29.98R
PAGOSA SPRINGS MOSUNNY   19  18  97 CALM      29.90R
TELLURIDE      SNOW      18  17  94 W8        29.91R VSB 1/2 WCI   8
WOLF CREEK PAS CLOUDY     7   5  92 MISG      29.84R
$$

COZ009-010-012-014-032>034-037-058>063-041600-
...CENTRAL COLORADO...

CITY           SKY/WX    TMP DP  RH WIND       PRES   REMARKS
ASPEN          FLURRIES  14  10  84 CALM      29.95R
BUENA VISTA    MOSUNNY   19   5  56 NW23G29   29.88R WCI   1
COPPER MTN     NOT AVBL
BERTHOUD PASS  NOT AVBL
COTTONWOOD PAS PTSUNNY   16  10  79 CALM      29.83R
GUNNISON       MOSUNNY   18  12  79 CALM      29.93R
KREMMLING      CLOUDY    12   1  62 CALM      29.98R
LEADVILLE      CLOUDY     6  -3  66 N8        29.84R HAZE    WCI  -7
SALIDA         CLOUDY    20  17  85 E10G17    29.99R WCI   9
SUNLIGHT       MOSUNNY  N/A N/A N/A N6          N/A
WILKERSON PASS MIX PCPN   3   0  85 N5        29.81R VSB 3/4 WCI  -6
$$

COZ069>075-041600-
...SAN LUIS VALLEY/SANGRE DE CRISTO MOUNTAINS...

CITY           SKY/WX    TMP DP  RH WIND       PRES   REMARKS
ALAMOSA        SUNNY     26  15  63 NW6       29.88R WCI  19
LA VETA PASS   SNOW       9   5  85 MISG      29.85R VSB 1/2
SAGUACHE       SUNNY     23  12  63 NW14G21   29.88R WCI  11
$$

COZ035-036-038>040-041600-
...NORTHERN COLORADO FRONT RANGE...

CITY           SKY/WX    TMP DP  RH WIND       PRES   REMARKS
DENVER INTL AP LGT SNOW  10   7  87 NE5       30.13R FOG     WCI   2
DMNS CITY PARK   N/A     12   8  85 NE3       30.14R
AURORA         LGT SNOW  10   8  89 N1        30.12R FOG
FRONT RANGE AP LGT SNOW  12  10  92 NE3       30.13
ERIE MUNI ARPT CLOUDY    13   9  83 SE6       30.15R WCI   4
BOULDER MUN AP LGT SNOW  14  10  85 E3        30.13R VSB 1
CENTENNIAL     LGT SNOW  10   6  84 CALM      30.10R FOG
BROOMFIELD     NOT AVBL
FORT COLLINS   MOSUNNY   10   7  85 SE6       30.16R WCI   1
LONGMONT       CLOUDY    17  10  74 E5        30.17R WCI  10
$$

COZ041-046-047-076>085-087-088-041600-
...PIKES PEAK/PALMER DIVIDE AND SOUTHERN FOOTHILLS...

CITY           SKY/WX    TMP DP  RH WIND       PRES   REMARKS
COLO. SPRINGS  LGT SNOW  11   3  70 N8        30.07R WCI  -1
A. F. ACADEMY  LGT SNOW   9   3  78 N9        30.03R WCI  -5
ELLICOTT       NOT AVBL
FALCON         CLOUDY     8   4  84 N10       30.02R FOG     WCI  -6
FORT CARSON    LGT SNOW  11   7  83 N12       30.07R VSB 1   WCI  -3
LIMON          LGT SNOW   9   5  84 N6        30.13R FOG     WCI  -1
MONUMENT HILL  LGT SNOW   7   3  85 N7        30.01R WCI  -5
TRINIDAD       LGT SNOW  23  20  88 NE13      30.01R FOG     WCI  11
$$

COZ042>045-048>051-090-091-041600-
...NORTHEAST COLORADO...

CITY           SKY/WX    TMP DP  RH WIND       PRES   REMARKS
GREELEY ARPT   PTSUNNY   16   5  62 S3        30.17R
AKRON          MOSUNNY   11   7  84 W7        30.16R WCI   0
BURLINGTON     CLOUDY    15   4  61 N14       30.18R WCI   0
WRAY           MOSUNNY   15  11  84 NW6       30.22R WCI   6
STERLING       CLOUDY    16   9  73 W7        30.19R WCI   6
HOLYOKE        NOT AVBL
FORT MORGAN    CLOUDY    15   8  75 W5        30.19R WCI   7
$$

COZ086-089-092>099-041600-
...SOUTHEAST COLORADO...

CITY           SKY/WX    TMP DP  RH WIND       PRES   REMARKS
PUEBLO         LGT SNOW  17  14  88 NE14      30.14R FOG     WCI   3
LA JUNTA       LGT SNOW  18  14  84 E16       30.17R VSB 3/4 WCI   3
LAMAR          LGT SNOW  19  15  84 NE9       30.19R FOG     WCI   8
SPRINGFIELD      N/A     15  13  91 NE17      30.12R WCI  -1
$$



USA.gov is the U.S. government's official web portal to all federal, state and local government web resources and services.